Lid_Strength_Index
-0 -1 -1 -1 -1 -1 -1 -1 -1 -2 -2 -2 -2 -2 -2 -2 -2 -2 -2 -2 -2 -2 -2 -2 -3 -3 -3 -2 -3 -3 -1 0
-0 -0 -1 -1 -1 -1 -1 -1 -1 -2 -2 -2 -2 -2 -2 -3 -2 -2 -2 -2 -2 -2 -2 -2 -3 -3 -2 -2 -2 -2 -0 0
-0 -0 -0 -0 -1 -1 -1 -2 -2 -2 -2 -2 -1 -0 -1 -1 -2 -2 -2 -2 -2 -2 -3 -3 -3 -2 -2 -3 -2 0 -0 0
0 -0 -0 -0 -1 -1 -1 -1 -1 -1 -1 -0 -0 -1 -1 -1 -1 -2 -2 -2 -2 -2 -3 -2 -2 -0 -0 -2 -0 -1 -0 0
0 -0 -1 -1 -0 -1 -0 -1 -1 -1 -1 -1 -1 -1 -1 -1 -1 -1 -1 -1 -1 -1 -1 -1 -1 -0 -0 -0 -0 -0 0 0
0 -0 -0 -1 -1 -0 -1 -0 -1 -0 -1 -1 -1 -1 -1 -1 -0 -0 -0 -0 -0 -0 -0 -1 -0 -0 -0 -0 -0 0 1 0
0 -0 -0 -0 -0 -0 -0 -0 -1 -1 -1 -1 -1 -0 -0 -1 -1 -0 -0 -1 -0 0 0 0 0 0 -0 0 1 1 1 1
0 0 -0 -1 -0 -0 -0 -0 0 -0 -1 -1 -1 -1 -0 -0 -0 -1 0 0 0 0 -0 1 1 1 1 0 0 1 1 1
1 0 -0 -0 -0 -0 0 0 0 0 -1 -1 -1 -1 -1 -0 1 1 1 0 1 1 1 1 2 2 2 3 3 3 3 3
0 0 0 -0 0 0 0 0 0 0 0 -1 -1 -1 -1 -1 0 1 1 1 2 2 2 3 3 4 4 4 4 4 4 4
1 0 1 0 1 1 1 1 -0 -0 -0 -0 -0 -0 -0 1 1 1 0 1 1 2 3 4 5 5 5 6 5 5 4 4
1 1 1 1 0 0 1 -0 0 1 0 0 -0 0 0 -0 0 1 1 2 2 3 4 4 5 5 5 6 6 5 5 4
1 2 1 0 1 1 1 1 0 0 0 0 -0 0 -0 0 0 1 1 3 3 3 4 5 6 5 7 7 7 6 6 6
1 1 1 0 0 1 0 1 0 0 0 0 -0 0 1 1 1 2 2 3 4 4 5 6 6 6 7 8 10 9 7 6
1 1 1 0 0 0 0 0 0 1 1 1 1 0 1 1 2 2 3 4 5 5 5 6 7 6 6 9 10 11 9 8
1 1 1 0 0 1 1 2 2 1 1 1 1 0 1 1 2 3 3 3 4 4 5 6 6 8 7 6 7 8 11 11
1 1 1 0 0 0 1 1 1 1 1 1 2 2 1 2 3 3 3 3 4 4 5 5 6 7 8 8 8 8 8 10
1 1 1 0 0 0 1 1 2 3 3 3 3 3 3 3 3 3 4 4 4 4 5 5 6 6 7 7 8 9 9 9
1 1 1 1 1 1 1 2 3 3 3 4 4 4 4 4 4 4 4 5 5 5 5 6 6 7 7 7 7 7 6 7
1 1 1 1 1 1 2 2 3 3 3 4 4 4 4 3 4 4 5 5 5 5 5 6 6 6 6 6 6 5 5 6